Time,TemperatureF,DewpointF,PressureIn,WindDirection,WindDirectionDegrees,WindSpeedMPH,WindSpeedGustMPH,Humidity,HourlyPrecipIn,Conditions,Clouds,dailyrainin,SoftwareType,DateUTC
2013-01-11 00:00:00,65.0,64.7,29.98,SSW,193,0.0,0.0,99,0.02,,---,0.00,VWS V14.01,2013-01-11 06:00:00,
2013-01-11 00:05:00,65.2,64.9,29.98,SSW,194,5.0,9.0,99,0.02,,---,0.00,VWS V14.01,2013-01-11 06:05:00,
2013-01-11 00:10:00,65.2,64.9,29.98,South,178,2.0,9.0,99,0.02,,---,0.00,VWS V14.01,2013-01-11 06:10:00,
2013-01-11 00:15:00,65.2,64.9,29.98,South,176,0.0,0.0,99,0.01,,---,0.00,VWS V14.01,2013-01-11 06:15:00,
2013-01-11 00:20:00,65.3,65.0,29.98,SSE,168,2.0,9.0,99,0.01,,---,0.00,VWS V14.01,2013-01-11 06:20:00,
2013-01-11 00:25:00,65.3,65.0,29.98,South,176,0.0,9.0,99,0.01,,---,0.00,VWS V14.01,2013-01-11 06:25:00,
2013-01-11 00:30:00,65.5,65.2,29.98,SSW,195,2.0,5.0,99,0.01,,---,0.00,VWS V14.01,2013-01-11 06:30:00,
2013-01-11 00:36:00,65.5,65.2,29.98,South,188,5.0,11.0,99,0.01,,---,0.00,VWS V14.01,2013-01-11 06:36:00,
2013-01-11 00:41:00,65.6,65.3,29.98,South,183,5.0,11.0,99,0.01,,---,0.00,VWS V14.01,2013-01-11 06:41:00,
2013-01-11 00:45:00,65.6,65.3,29.98,South,172,6.0,11.0,99,0.01,,---,0.00,VWS V14.01,2013-01-11 06:45:00,
2013-01-11 00:46:00,65.6,65.3,29.98,SSW,197,2.0,6.0,99,0.00,,---,0.00,VWS V14.01,2013-01-11 06:46:00,
2013-01-11 00:51:00,65.8,65.5,29.98,South,186,3.0,10.0,99,0.00,,---,0.00,VWS V14.01,2013-01-11 06:51:00,
2013-01-11 00:56:00,65.8,65.5,29.98,South,171,0.0,10.0,99,0.00,,---,0.00,VWS V14.01,2013-01-11 06:56:00,
2013-01-11 01:00:00,66.0,65.7,29.98,South,183,8.0,10.0,99,0.00,,---,0.00,VWS V14.01,2013-01-11 07:00:00,
2013-01-11 01:01:00,66.0,65.7,29.98,SSW,194,0.0,12.0,99,0.00,,---,0.00,VWS V14.01,2013-01-11 07:01:00,
2013-01-11 01:06:00,66.0,65.7,29.98,South,180,9.0,12.0,99,0.00,,---,0.00,VWS V14.01,2013-01-11 07:06:00,
2013-01-11 01:11:00,66.0,65.7,29.98,SW,215,4.0,12.0,99,0.00,,---,0.00,VWS V14.01,2013-01-11 07:11:00,
2013-01-11 01:15:00,66.1,65.8,29.98,SSW,200,4.0,12.0,99,0.00,,---,0.00,VWS V14.01,2013-01-11 07:15:00,
2013-01-11 01:16:00,66.1,65.8,29.98,SW,221,5.0,6.0,99,0.00,,---,0.00,VWS V14.01,2013-01-11 07:16:00,
2013-01-11 01:21:00,66.1,65.8,29.98,SSW,200,4.0,10.0,99,0.00,,---,0.00,VWS V14.01,2013-01-11 07:21:00,
2013-01-11 01:26:00,66.1,65.8,29.98,SSW,198,5.0,11.0,99,0.00,,---,0.00,VWS V14.01,2013-01-11 07:26:00,
2013-01-11 01:30:00,66.1,65.8,29.98,SSW,209,7.0,11.0,99,0.00,,---,0.00,VWS V14.01,2013-01-11 07:30:00,
2013-01-11 01:31:00,66.3,66.0,29.98,South,182,0.0,10.0,99,0.00,,---,0.00,VWS V14.01,2013-01-11 07:31:00,
2013-01-11 01:37:00,66.3,66.0,29.98,SSW,198,5.0,12.0,99,0.01,,---,0.01,VWS V14.01,2013-01-11 07:37:00,
2013-01-11 01:42:00,66.3,66.0,29.98,SSW,203,5.0,12.0,99,0.01,,---,0.01,VWS V14.01,2013-01-11 07:42:00,
2013-01-11 01:45:00,66.3,66.0,29.99,SSW,202,10.0,12.0,99,0.01,,---,0.01,VWS V14.01,2013-01-11 07:45:00,
2013-01-11 01:47:00,66.3,66.0,29.99,SSW,192,6.0,10.0,99,0.01,,---,0.01,VWS V14.01,2013-01-11 07:47:00,
2013-01-11 01:52:00,66.3,66.0,29.99,SSW,201,4.0,11.0,99,0.01,,---,0.01,VWS V14.01,2013-01-11 07:52:00,
2013-01-11 01:57:00,66.4,66.1,29.99,WSW,256,5.0,11.0,99,0.01,,---,0.01,VWS V14.01,2013-01-11 07:57:00,
2013-01-11 02:00:00,66.4,66.1,29.99,SW,217,0.0,11.0,99,0.01,,---,0.01,VWS V14.01,2013-01-11 08:00:00,
2013-01-11 02:02:00,66.4,66.1,29.99,SW,227,0.0,6.0,99,0.01,,---,0.01,VWS V14.01,2013-01-11 08:02:00,
2013-01-11 02:07:00,66.4,66.1,29.99,WSW,243,4.0,6.0,99,0.01,,---,0.01,VWS V14.01,2013-01-11 08:07:00,
2013-01-11 02:12:00,66.4,66.1,29.99,SW,232,1.0,6.0,99,0.01,,---,0.01,VWS V14.01,2013-01-11 08:12:00,
2013-01-11 02:15:00,66.4,66.1,30.00,SW,230,4.0,7.0,99,0.01,,---,0.01,VWS V14.01,2013-01-11 08:15:00,
2013-01-11 02:17:00,66.4,66.1,30.00,SW,223,0.0,4.0,99,0.01,,---,0.01,VWS V14.01,2013-01-11 08:17:00,
2013-01-11 02:23:00,66.4,66.1,30.00,WSW,243,2.0,7.0,99,0.01,,---,0.01,VWS V14.01,2013-01-11 08:23:00,
2013-01-11 02:28:00,66.4,66.1,30.00,WSW,240,1.0,7.0,99,0.01,,---,0.01,VWS V14.01,2013-01-11 08:28:00,
2013-01-11 02:30:00,66.4,66.1,30.00,WSW,258,3.0,7.0,99,0.01,,---,0.01,VWS V14.01,2013-01-11 08:30:00,
2013-01-11 02:33:00,66.3,66.0,30.00,West,263,0.0,6.0,99,0.01,,---,0.01,VWS V14.01,2013-01-11 08:33:00,
2013-01-11 02:38:00,66.3,66.0,30.00,WSW,250,6.0,9.0,99,0.01,,---,0.01,VWS V14.01,2013-01-11 08:38:00,
2013-01-11 02:43:00,66.3,66.0,30.00,WSW,244,0.0,9.0,99,0.01,,---,0.01,VWS V14.01,2013-01-11 08:43:00,
2013-01-11 02:45:00,66.3,66.0,30.00,SW,236,3.0,9.0,99,0.01,,---,0.01,VWS V14.01,2013-01-11 08:45:00,
2013-01-11 02:48:00,66.1,65.8,30.00,WSW,244,0.0,7.0,99,0.00,,---,0.01,VWS V14.01,2013-01-11 08:48:00,
2013-01-11 02:53:00,66.1,65.8,30.00,WSW,238,0.0,9.0,99,0.00,,---,0.01,VWS V14.01,2013-01-11 08:53:00,
2013-01-11 02:58:00,66.1,65.8,29.99,WSW,250,7.0,9.0,99,0.00,,---,0.01,VWS V14.01,2013-01-11 08:58:00,
2013-01-11 03:00:00,66.1,65.8,29.99,WSW,248,3.0,9.0,99,0.00,,---,0.01,VWS V14.01,2013-01-11 09:00:00,
2013-01-11 03:03:00,66.0,65.7,29.99,West,269,0.0,7.0,99,0.00,,---,0.01,VWS V14.01,2013-01-11 09:03:00,
2013-01-11 03:09:00,66.0,65.7,29.99,WNW,286,4.0,11.0,99,0.00,,---,0.01,VWS V14.01,2013-01-11 09:09:00,
2013-01-11 03:14:00,65.8,65.5,29.98,West,272,7.0,11.0,99,0.00,,---,0.01,VWS V14.01,2013-01-11 09:14:00,
2013-01-11 03:15:00,65.8,65.5,29.98,West,263,4.0,11.0,99,0.00,,---,0.01,VWS V14.01,2013-01-11 09:15:00,
2013-01-11 03:19:00,65.6,65.3,29.98,West,272,1.0,7.0,99,0.00,,---,0.01,VWS V14.01,2013-01-11 09:19:00,
2013-01-11 03:24:00,65.6,65.3,29.98,SW,236,0.0,7.0,99,0.01,,---,0.02,VWS V14.01,2013-01-11 09:24:00,
2013-01-11 03:29:00,65.6,65.3,29.98,WSW,256,0.0,7.0,99,0.01,,---,0.02,VWS V14.01,2013-01-11 09:29:00,
2013-01-11 03:30:00,65.6,65.3,29.98,West,275,4.0,7.0,99,0.01,,---,0.02,VWS V14.01,2013-01-11 09:30:00,
2013-01-11 03:34:00,65.5,65.2,29.98,West,280,4.0,6.0,99,0.01,,---,0.02,VWS V14.01,2013-01-11 09:34:00,
2013-01-11 03:39:00,65.2,64.9,29.98,NNW,334,2.0,7.0,99,0.01,,---,0.02,VWS V14.01,2013-01-11 09:39:00,
2013-01-11 03:44:00,64.8,64.5,29.98,WNW,288,0.0,8.0,99,0.01,,---,0.02,VWS V14.01,2013-01-11 09:44:00,
2013-01-11 03:45:00,64.8,64.5,29.98,WNW,288,0.0,8.0,99,0.01,,---,0.02,VWS V14.01,2013-01-11 09:45:00,
2013-01-11 03:49:00,64.5,64.2,29.98,West,280,3.0,7.0,99,0.01,,---,0.02,VWS V14.01,2013-01-11 09:49:00,
2013-01-11 03:54:00,64.5,64.2,29.98,WNW,284,3.0,7.0,99,0.01,,---,0.02,VWS V14.01,2013-01-11 09:54:00,
2013-01-11 03:59:00,64.3,64.0,29.98,WNW,282,2.0,2.0,99,0.01,,---,0.02,VWS V14.01,2013-01-11 09:59:00,
2013-01-11 04:00:00,64.3,64.0,29.98,WNW,282,1.0,7.0,99,0.01,,---,0.02,VWS V14.01,2013-01-11 10:00:00,
2013-01-11 04:04:00,64.2,63.9,29.98,West,275,2.0,5.0,99,0.01,,---,0.02,VWS V14.01,2013-01-11 10:04:00,
2013-01-11 04:10:00,64.2,63.9,29.98,WNW,284,0.0,5.0,99,0.01,,---,0.02,VWS V14.01,2013-01-11 10:10:00,
2013-01-11 04:15:00,64.2,63.9,29.97,WNW,295,2.0,4.0,99,0.01,,---,0.02,VWS V14.01,2013-01-11 10:15:00,
2013-01-11 04:20:00,64.0,63.7,29.97,WNW,300,0.0,4.0,99,0.01,,---,0.02,VWS V14.01,2013-01-11 10:20:00,
2013-01-11 04:25:00,64.0,63.7,29.97,WNW,287,0.0,5.0,99,0.01,,---,0.02,VWS V14.01,2013-01-11 10:25:00,
2013-01-11 04:30:00,63.9,63.6,29.97,WNW,284,0.0,1.0,99,0.00,,---,0.02,VWS V14.01,2013-01-11 10:30:00,
2013-01-11 04:35:00,63.7,63.4,29.97,WNW,292,0.0,3.0,99,0.00,,---,0.02,VWS V14.01,2013-01-11 10:35:00,
2013-01-11 04:40:00,63.5,63.2,29.97,WNW,292,0.0,3.0,99,0.00,,---,0.02,VWS V14.01,2013-01-11 10:40:00,
2013-01-11 04:45:00,63.5,63.2,29.97,WNW,296,0.0,1.0,99,0.00,,---,0.02,VWS V14.01,2013-01-11 10:45:00,
2013-01-11 04:50:00,63.4,63.1,29.97,WNW,296,1.0,3.0,99,0.00,,---,0.02,VWS V14.01,2013-01-11 10:50:00,
2013-01-11 04:55:00,63.2,62.9,29.97,WNW,296,0.0,3.0,99,0.00,,---,0.02,VWS V14.01,2013-01-11 10:55:00,
2013-01-11 05:00:00,63.1,62.8,29.98,WNW,296,0.0,0.0,99,0.00,,---,0.02,VWS V14.01,2013-01-11 11:00:00,
2013-01-11 05:05:00,63.1,62.8,29.98,WNW,296,0.0,0.0,99,0.00,,---,0.02,VWS V14.01,2013-01-11 11:05:00,
2013-01-11 05:10:00,62.9,62.6,29.98,WNW,296,0.0,0.0,99,0.00,,---,0.02,VWS V14.01,2013-01-11 11:10:00,
2013-01-11 05:15:00,62.9,62.6,29.97,WNW,296,0.0,0.0,99,0.00,,---,0.02,VWS V14.01,2013-01-11 11:15:00,
2013-01-11 05:20:00,62.9,62.6,29.97,WNW,296,0.0,1.0,99,0.00,,---,0.02,VWS V14.01,2013-01-11 11:20:00,
2013-01-11 05:25:00,62.7,62.4,29.97,WNW,296,0.0,1.0,99,0.00,,---,0.02,VWS V14.01,2013-01-11 11:25:00,
2013-01-11 05:30:00,62.7,62.4,29.98,WNW,296,0.0,0.0,99,0.00,,---,0.02,VWS V14.01,2013-01-11 11:30:00,
2013-01-11 05:36:00,62.7,62.4,29.98,WNW,296,0.0,0.0,99,0.00,,---,0.02,VWS V14.01,2013-01-11 11:36:00,
2013-01-11 05:41:00,62.7,62.4,29.98,WNW,296,0.0,0.0,99,0.00,,---,0.02,VWS V14.01,2013-01-11 11:41:00,
2013-01-11 05:45:00,62.6,62.3,29.98,WNW,296,0.0,0.0,99,0.00,,---,0.02,VWS V14.01,2013-01-11 11:45:00,
2013-01-11 05:46:00,62.6,62.3,29.98,WNW,296,0.0,0.0,99,0.00,,---,0.02,VWS V14.01,2013-01-11 11:46:00,
2013-01-11 05:51:00,62.6,62.3,29.98,WNW,296,0.0,0.0,99,0.00,,---,0.02,VWS V14.01,2013-01-11 11:51:00,
2013-01-11 05:56:00,62.6,62.3,29.98,WNW,296,0.0,0.0,99,0.00,,---,0.02,VWS V14.01,2013-01-11 11:56:00,
2013-01-11 06:00:00,62.6,62.3,29.99,WNW,296,0.0,0.0,99,0.00,,---,0.02,VWS V14.01,2013-01-11 12:00:00,
2013-01-11 06:01:00,62.6,62.3,29.99,WNW,296,0.0,0.0,99,0.00,,---,0.02,VWS V14.01,2013-01-11 12:01:00,
2013-01-11 06:06:00,62.6,62.3,29.99,WNW,296,0.0,0.0,99,0.00,,---,0.02,VWS V14.01,2013-01-11 12:06:00,
2013-01-11 06:11:00,62.6,62.3,29.99,WNW,296,0.0,0.0,99,0.00,,---,0.02,VWS V14.01,2013-01-11 12:11:00,
2013-01-11 06:15:00,62.6,62.3,29.99,WNW,296,0.0,0.0,99,0.00,,---,0.02,VWS V14.01,2013-01-11 12:15:00,
2013-01-11 06:16:00,62.6,62.3,29.99,WNW,296,0.0,0.0,99,0.00,,---,0.02,VWS V14.01,2013-01-11 12:16:00,
2013-01-11 06:21:00,62.6,62.3,29.99,WNW,296,0.0,0.0,99,0.00,,---,0.02,VWS V14.01,2013-01-11 12:21:00,
2013-01-11 06:26:00,62.4,62.1,29.99,WNW,296,0.0,0.0,99,0.00,,---,0.02,VWS V14.01,2013-01-11 12:26:00,
2013-01-11 06:30:00,62.4,62.1,30.00,WNW,296,0.0,0.0,99,0.00,,---,0.02,VWS V14.01,2013-01-11 12:30:00,
2013-01-11 06:31:00,62.4,62.1,30.00,WNW,296,0.0,0.0,99,0.00,,---,0.02,VWS V14.01,2013-01-11 12:31:00,
2013-01-11 06:36:00,62.4,62.1,30.00,WNW,296,0.0,0.0,99,0.00,,---,0.02,VWS V14.01,2013-01-11 12:36:00,
2013-01-11 06:42:00,62.4,62.1,30.00,WNW,296,0.0,0.0,99,0.00,,---,0.02,VWS V14.01,2013-01-11 12:42:00,
2013-01-11 06:45:00,62.4,62.1,29.99,WNW,296,0.0,0.0,99,0.00,,---,0.02,VWS V14.01,2013-01-11 12:45:00,
2013-01-11 06:47:00,62.4,62.1,29.99,WNW,296,0.0,0.0,99,0.00,,---,0.02,VWS V14.01,2013-01-11 12:47:00,
2013-01-11 06:52:00,62.4,62.1,29.99,WNW,296,0.0,0.0,99,0.01,,---,0.03,VWS V14.01,2013-01-11 12:52:00,
2013-01-11 06:57:00,62.4,62.1,29.99,WNW,296,0.0,0.0,99,0.01,,---,0.03,VWS V14.01,2013-01-11 12:57:00,
2013-01-11 07:00:00,62.4,62.1,30.00,WNW,296,0.0,0.0,99,0.01,,---,0.03,VWS V14.01,2013-01-11 13:00:00,
2013-01-11 07:02:00,62.4,62.1,30.00,SSW,196,3.0,4.0,99,0.01,,---,0.03,VWS V14.01,2013-01-11 13:02:00,
2013-01-11 07:07:00,62.6,62.3,30.00,SSW,196,0.0,4.0,99,0.01,,---,0.03,VWS V14.01,2013-01-11 13:07:00,
2013-01-11 07:12:00,62.6,62.3,30.00,SSW,196,0.0,4.0,99,0.01,,---,0.03,VWS V14.01,2013-01-11 13:12:00,
2013-01-11 07:15:00,62.6,62.3,30.00,SSW,196,0.0,4.0,99,0.01,,---,0.03,VWS V14.01,2013-01-11 13:15:00,
2013-01-11 07:17:00,62.6,62.3,30.00,SSW,196,0.0,0.0,99,0.01,,---,0.03,VWS V14.01,2013-01-11 13:17:00,
2013-01-11 07:22:00,62.6,62.3,30.00,SSW,196,0.0,0.0,99,0.01,,---,0.03,VWS V14.01,2013-01-11 13:22:00,
2013-01-11 07:28:00,62.6,62.3,30.00,SSW,196,0.0,0.0,99,0.01,,---,0.03,VWS V14.01,2013-01-11 13:28:00,
2013-01-11 07:30:00,62.6,62.3,30.01,SSW,196,0.0,0.0,99,0.01,,---,0.03,VWS V14.01,2013-01-11 13:30:00,
2013-01-11 07:33:00,62.6,62.3,30.01,SSW,196,0.0,0.0,99,0.01,,---,0.03,VWS V14.01,2013-01-11 13:33:00,
2013-01-11 07:38:00,62.6,62.3,30.01,SSW,196,0.0,0.0,99,0.01,,---,0.03,VWS V14.01,2013-01-11 13:38:00,
2013-01-11 07:43:00,62.6,62.3,30.01,SSW,196,0.0,0.0,99,0.02,,---,0.04,VWS V14.01,2013-01-11 13:43:00,
2013-01-11 07:45:00,62.6,62.3,30.01,SSW,196,0.0,0.0,99,0.02,,---,0.04,VWS V14.01,2013-01-11 13:45:00,
2013-01-11 07:48:00,62.6,62.3,30.01,SSW,196,0.0,0.0,99,0.04,,---,0.06,VWS V14.01,2013-01-11 13:48:00,
2013-01-11 07:53:00,62.6,62.3,30.01,SSW,196,0.0,0.0,99,0.04,,---,0.06,VWS V14.01,2013-01-11 13:53:00,
2013-01-11 07:58:00,62.6,62.3,30.02,SSW,196,0.0,0.0,99,0.04,,---,0.06,VWS V14.01,2013-01-11 13:58:00,
2013-01-11 08:00:00,62.6,62.3,30.02,SSW,196,0.0,0.0,99,0.04,,---,0.06,VWS V14.01,2013-01-11 14:00:00,
2013-01-11 08:03:00,62.7,62.4,30.02,SSW,196,0.0,0.0,99,0.03,,---,0.06,VWS V14.01,2013-01-11 14:03:00,
2013-01-11 08:08:00,62.7,62.4,30.02,SSW,196,0.0,0.0,99,0.03,,---,0.06,VWS V14.01,2013-01-11 14:08:00,
2013-01-11 08:14:00,62.7,62.4,30.02,SSW,196,0.0,1.0,99,0.03,,---,0.06,VWS V14.01,2013-01-11 14:14:00,
2013-01-11 08:15:00,62.7,62.4,30.02,SSW,196,0.0,1.0,99,0.03,,---,0.06,VWS V14.01,2013-01-11 14:15:00,
2013-01-11 08:19:00,62.7,62.7,30.02,SSW,196,0.0,1.0,100,0.03,,---,0.06,VWS V14.01,2013-01-11 14:19:00,
2013-01-11 08:24:00,62.7,62.7,30.02,SSW,196,0.0,1.0,100,0.03,,---,0.06,VWS V14.01,2013-01-11 14:24:00,
2013-01-11 08:29:00,62.9,62.9,30.01,SSW,196,0.0,1.0,100,0.03,,---,0.06,VWS V14.01,2013-01-11 14:29:00,
2013-01-11 08:30:00,62.9,62.9,30.01,SSW,196,0.0,1.0,100,0.03,,---,0.06,VWS V14.01,2013-01-11 14:30:00,
2013-01-11 08:34:00,62.9,62.9,30.01,SSW,196,0.0,0.0,100,0.03,,---,0.06,VWS V14.01,2013-01-11 14:34:00,
2013-01-11 08:39:00,63.1,63.1,30.01,SSW,196,0.0,0.0,100,0.03,,---,0.06,VWS V14.01,2013-01-11 14:39:00,
2013-01-11 08:44:00,62.9,62.9,30.02,SSW,196,0.0,0.0,100,0.03,,---,0.06,VWS V14.01,2013-01-11 14:44:00,
2013-01-11 08:45:00,62.9,62.9,30.02,SSW,196,0.0,0.0,100,0.03,,---,0.06,VWS V14.01,2013-01-11 14:45:00,
2013-01-11 08:49:00,62.9,62.6,30.02,SSW,196,0.0,0.0,99,0.02,,---,0.06,VWS V14.01,2013-01-11 14:49:00,
2013-01-11 08:54:00,62.9,62.6,30.02,SSW,196,0.0,0.0,99,0.02,,---,0.06,VWS V14.01,2013-01-11 14:54:00,
2013-01-11 08:59:00,62.9,62.6,30.02,SSW,196,0.0,0.0,99,0.02,,---,0.06,VWS V14.01,2013-01-11 14:59:00,
2013-01-11 09:00:00,62.9,62.6,30.02,SSW,196,0.0,0.0,99,0.02,,---,0.06,VWS V14.01,2013-01-11 15:00:00,
2013-01-11 09:04:00,63.1,63.1,30.02,SSW,196,0.0,0.0,100,0.00,,---,0.06,VWS V14.01,2013-01-11 15:04:00,
2013-01-11 09:09:00,63.2,63.2,30.02,SSW,196,0.0,0.0,100,0.00,,---,0.06,VWS V14.01,2013-01-11 15:09:00,
2013-01-11 09:14:00,63.1,63.1,30.03,SSW,196,0.0,0.0,100,0.00,,---,0.06,VWS V14.01,2013-01-11 15:14:00,
2013-01-11 09:15:00,63.1,63.1,30.03,SSW,196,0.0,0.0,100,0.00,,---,0.06,VWS V14.01,2013-01-11 15:15:00,
2013-01-11 09:19:00,63.2,63.2,30.03,SSW,196,0.0,0.0,100,0.00,,---,0.06,VWS V14.01,2013-01-11 15:19:00,
2013-01-11 09:24:00,63.1,62.8,30.03,SSW,196,0.0,0.0,99,0.00,,---,0.06,VWS V14.01,2013-01-11 15:24:00,
2013-01-11 09:29:00,63.1,62.8,30.03,SSW,196,0.0,0.0,99,0.00,,---,0.06,VWS V14.01,2013-01-11 15:29:00,
2013-01-11 09:30:00,63.1,62.8,30.03,SSW,196,0.0,0.0,99,0.00,,---,0.06,VWS V14.01,2013-01-11 15:30:00,
2013-01-11 09:35:00,63.1,63.1,30.03,SSW,196,0.0,0.0,100,0.00,,---,0.06,VWS V14.01,2013-01-11 15:35:00,
2013-01-11 09:40:00,63.2,63.2,30.03,SSW,196,0.0,1.0,100,0.00,,---,0.06,VWS V14.01,2013-01-11 15:40:00,
2013-01-11 09:45:00,63.2,63.2,30.02,SSW,196,0.0,0.0,100,0.00,,---,0.06,VWS V14.01,2013-01-11 15:45:00,
2013-01-11 09:50:00,63.2,62.9,30.02,SSW,196,0.0,0.0,99,0.00,,---,0.06,VWS V14.01,2013-01-11 15:50:00,
2013-01-11 09:55:00,63.2,63.2,30.02,SSE,168,0.0,2.0,100,0.02,,---,0.08,VWS V14.01,2013-01-11 15:55:00,
2013-01-11 10:00:00,63.2,63.2,30.03,SSE,168,0.0,0.0,100,0.02,,---,0.08,VWS V14.01,2013-01-11 16:00:00,
2013-01-11 10:05:00,63.1,63.1,30.03,SSE,168,0.0,1.0,100,0.02,,---,0.08,VWS V14.01,2013-01-11 16:05:00,
2013-01-11 10:10:00,62.9,62.6,30.03,SSE,168,0.0,1.0,99,0.02,,---,0.08,VWS V14.01,2013-01-11 16:10:00,
2013-01-11 10:15:00,62.9,62.6,30.03,SSE,168,0.0,0.0,99,0.02,,---,0.08,VWS V14.01,2013-01-11 16:15:00,
2013-01-11 10:20:00,63.1,62.8,30.03,SSE,168,0.0,1.0,99,0.02,,---,0.08,VWS V14.01,2013-01-11 16:20:00,
2013-01-11 10:26:00,63.4,63.4,30.03,SSE,168,0.0,1.0,100,0.03,,---,0.09,VWS V14.01,2013-01-11 16:26:00,
2013-01-11 10:30:00,63.5,63.5,30.02,SSE,154,0.0,1.0,100,0.03,,---,0.09,VWS V14.01,2013-01-11 16:30:00,
2013-01-11 10:31:00,63.4,63.4,30.02,SSE,154,0.0,0.0,100,0.03,,---,0.09,VWS V14.01,2013-01-11 16:31:00,
2013-01-11 10:36:00,63.5,63.2,30.02,SSE,154,0.0,0.0,99,0.03,,---,0.09,VWS V14.01,2013-01-11 16:36:00,
2013-01-11 10:41:00,64.0,64.0,30.02,SSE,154,0.0,2.0,100,0.03,,---,0.09,VWS V14.01,2013-01-11 16:41:00,
2013-01-11 10:45:00,64.0,63.7,30.01,SSE,150,0.0,2.0,99,0.03,,---,0.09,VWS V14.01,2013-01-11 16:45:00,
2013-01-11 10:46:00,64.0,63.7,30.01,SSE,150,0.0,0.0,99,0.03,,---,0.09,VWS V14.01,2013-01-11 16:46:00,
2013-01-11 10:51:00,64.0,64.0,30.01,ESE,121,0.0,0.0,100,0.03,,---,0.09,VWS V14.01,2013-01-11 16:51:00,
2013-01-11 10:56:00,63.9,63.6,30.01,ESE,121,0.0,0.0,99,0.03,,---,0.09,VWS V14.01,2013-01-11 16:56:00,
2013-01-11 11:00:00,63.9,63.6,30.01,ESE,121,0.0,0.0,99,0.03,,---,0.09,VWS V14.01,2013-01-11 17:00:00,
2013-01-11 11:01:00,63.9,63.6,30.01,ESE,121,0.0,0.0,99,0.01,,---,0.09,VWS V14.01,2013-01-11 17:01:00,
2013-01-11 11:06:00,63.7,63.4,30.01,ESE,121,0.0,0.0,99,0.01,,---,0.09,VWS V14.01,2013-01-11 17:06:00,
2013-01-11 11:11:00,63.5,63.2,30.01,ESE,121,0.0,0.0,99,0.01,,---,0.09,VWS V14.01,2013-01-11 17:11:00,
2013-01-11 11:15:00,63.5,63.2,30.00,ESE,121,0.0,0.0,99,0.01,,---,0.09,VWS V14.01,2013-01-11 17:15:00,
2013-01-11 11:17:00,63.5,63.2,30.00,ESE,121,0.0,0.0,99,0.01,,---,0.09,VWS V14.01,2013-01-11 17:17:00,
2013-01-11 11:22:00,63.5,63.2,30.00,ESE,121,0.0,1.0,99,0.01,,---,0.09,VWS V14.01,2013-01-11 17:22:00,
2013-01-11 11:27:00,63.5,63.2,30.00,ESE,121,0.0,1.0,99,0.01,,---,0.09,VWS V14.01,2013-01-11 17:27:00,
2013-01-11 11:30:00,63.5,63.2,30.00,ESE,121,0.0,1.0,99,0.01,,---,0.09,VWS V14.01,2013-01-11 17:30:00,
2013-01-11 11:32:00,63.7,63.4,30.00,ESE,121,0.0,0.0,99,0.00,,---,0.09,VWS V14.01,2013-01-11 17:32:00,
2013-01-11 11:37:00,63.7,63.4,30.00,ESE,121,0.0,1.0,99,0.00,,---,0.09,VWS V14.01,2013-01-11 17:37:00,
2013-01-11 11:42:00,64.0,63.7,30.00,ESE,121,0.0,1.0,99,0.00,,---,0.09,VWS V14.01,2013-01-11 17:42:00,
2013-01-11 11:45:00,64.0,63.7,29.99,ESE,121,0.0,1.0,99,0.00,,---,0.09,VWS V14.01,2013-01-11 17:45:00,
2013-01-11 11:47:00,64.0,63.7,29.99,ESE,121,3.0,3.0,99,0.00,,---,0.09,VWS V14.01,2013-01-11 17:47:00,
2013-01-11 11:52:00,64.2,63.9,29.99,ESE,121,0.0,3.0,99,0.00,,---,0.09,VWS V14.01,2013-01-11 17:52:00,
2013-01-11 11:57:00,64.5,64.2,29.99,ESE,121,0.0,3.0,99,0.00,,---,0.09,VWS V14.01,2013-01-11 17:57:00,
2013-01-11 12:00:00,64.5,64.2,29.98,ESE,121,0.0,3.0,99,0.00,,---,0.09,VWS V14.01,2013-01-11 18:00:00,
2013-01-11 12:03:00,64.3,64.0,29.98,ESE,121,0.0,0.0,99,0.00,,---,0.09,VWS V14.01,2013-01-11 18:03:00,
2013-01-11 12:08:00,64.5,64.2,29.98,ESE,121,0.0,0.0,99,0.00,,---,0.09,VWS V14.01,2013-01-11 18:08:00,
2013-01-11 12:13:00,64.7,64.4,29.98,ESE,121,0.0,1.0,99,0.00,,---,0.09,VWS V14.01,2013-01-11 18:13:00,
2013-01-11 12:15:00,64.7,64.4,29.97,ESE,121,0.0,1.0,99,0.00,,---,0.09,VWS V14.01,2013-01-11 18:15:00,
2013-01-11 12:18:00,64.7,64.4,29.97,ESE,121,0.0,0.0,99,0.00,,---,0.09,VWS V14.01,2013-01-11 18:18:00,
2013-01-11 12:23:00,64.8,64.5,29.97,ESE,121,0.0,0.0,99,0.00,,---,0.09,VWS V14.01,2013-01-11 18:23:00,
2013-01-11 12:28:00,65.3,65.0,29.97,East,98,2.0,4.0,99,0.00,,---,0.09,VWS V14.01,2013-01-11 18:28:00,
2013-01-11 12:30:00,65.3,65.0,29.96,East,98,0.0,4.0,99,0.00,,---,0.09,VWS V14.01,2013-01-11 18:30:00,
2013-01-11 12:33:00,65.3,65.0,29.96,East,98,0.0,0.0,99,0.00,,---,0.09,VWS V14.01,2013-01-11 18:33:00,
2013-01-11 12:38:00,65.5,65.2,29.96,East,98,0.0,1.0,99,0.00,,---,0.09,VWS V14.01,2013-01-11 18:38:00,
2013-01-11 12:43:00,65.6,65.3,29.96,East,98,0.0,1.0,99,0.00,,---,0.09,VWS V14.01,2013-01-11 18:43:00,
2013-01-11 12:45:00,65.6,65.3,29.95,East,98,0.0,1.0,99,0.00,,---,0.09,VWS V14.01,2013-01-11 18:45:00,
2013-01-11 12:48:00,66.0,65.7,29.95,East,79,0.0,1.0,99,0.00,,---,0.09,VWS V14.01,2013-01-11 18:48:00,
2013-01-11 12:53:00,66.1,65.8,29.95,ESE,111,0.0,1.0,99,0.00,,---,0.09,VWS V14.01,2013-01-11 18:53:00,
2013-01-11 12:59:00,66.1,65.8,29.95,ESE,112,0.0,4.0,99,0.00,,---,0.09,VWS V14.01,2013-01-11 18:59:00,
2013-01-11 13:00:00,66.1,65.8,29.95,ESE,112,0.0,4.0,99,0.00,,---,0.09,VWS V14.01,2013-01-11 19:00:00,
2013-01-11 13:04:00,66.1,65.8,29.95,ESE,112,0.0,1.0,99,0.00,,---,0.09,VWS V14.01,2013-01-11 19:04:00,
2013-01-11 13:09:00,66.3,66.0,29.95,ESE,112,0.0,1.0,99,0.00,,---,0.09,VWS V14.01,2013-01-11 19:09:00,
2013-01-11 13:14:00,66.3,66.0,29.95,ESE,112,0.0,1.0,99,0.00,,---,0.09,VWS V14.01,2013-01-11 19:14:00,
2013-01-11 13:15:00,66.3,66.0,29.95,ESE,112,0.0,1.0,99,0.00,,---,0.09,VWS V14.01,2013-01-11 19:15:00,
2013-01-11 13:19:00,66.4,66.1,29.95,ESE,112,0.0,0.0,99,0.00,,---,0.09,VWS V14.01,2013-01-11 19:19:00,
2013-01-11 13:24:00,66.4,66.1,29.95,ESE,112,0.0,0.0,99,0.00,,---,0.09,VWS V14.01,2013-01-11 19:24:00,
2013-01-11 13:29:00,66.6,66.3,29.94,ESE,112,0.0,0.0,99,0.00,,---,0.09,VWS V14.01,2013-01-11 19:29:00,
2013-01-11 13:30:00,66.6,66.3,29.94,ESE,112,0.0,0.0,99,0.00,,---,0.09,VWS V14.01,2013-01-11 19:30:00,
2013-01-11 13:34:00,66.6,66.3,29.94,ESE,112,0.0,0.0,99,0.00,,---,0.09,VWS V14.01,2013-01-11 19:34:00,
2013-01-11 13:39:00,66.6,66.3,29.94,ESE,112,0.0,4.0,99,0.00,,---,0.09,VWS V14.01,2013-01-11 19:39:00,
2013-01-11 13:44:00,66.8,66.5,29.94,ESE,112,0.0,0.0,99,0.00,,---,0.09,VWS V14.01,2013-01-11 19:44:00,
2013-01-11 13:45:00,66.8,66.5,29.94,ESE,112,0.0,4.0,99,0.00,,---,0.09,VWS V14.01,2013-01-11 19:45:00,
2013-01-11 13:50:00,66.8,66.5,29.94,ESE,112,0.0,0.0,99,0.00,,---,0.09,VWS V14.01,2013-01-11 19:50:00,
2013-01-11 13:55:00,66.8,66.5,29.94,East,84,0.0,0.0,99,0.00,,---,0.09,VWS V14.01,2013-01-11 19:55:00,
2013-01-11 14:00:00,66.9,66.6,29.93,East,89,0.0,0.0,99,0.00,,---,0.09,VWS V14.01,2013-01-11 20:00:00,
2013-01-11 14:05:00,67.1,66.8,29.93,East,101,0.0,4.0,99,0.00,,---,0.09,VWS V14.01,2013-01-11 20:05:00,
2013-01-11 14:10:00,67.3,67.0,29.93,East,101,0.0,4.0,99,0.00,,---,0.09,VWS V14.01,2013-01-11 20:10:00,
2013-01-11 14:15:00,67.4,67.1,29.93,East,101,0.0,0.0,99,0.00,,---,0.09,VWS V14.01,2013-01-11 20:15:00,
2013-01-11 14:20:00,67.3,67.0,29.93,East,101,0.0,0.0,99,0.00,,---,0.09,VWS V14.01,2013-01-11 20:20:00,
2013-01-11 14:25:00,67.1,66.8,29.93,East,101,0.0,0.0,99,0.00,,---,0.09,VWS V14.01,2013-01-11 20:25:00,
2013-01-11 14:30:00,67.3,67.0,29.93,ESE,119,3.0,3.0,99,0.00,,---,0.09,VWS V14.01,2013-01-11 20:30:00,
2013-01-11 14:35:00,67.4,67.1,29.93,East,99,0.0,3.0,99,0.00,,---,0.09,VWS V14.01,2013-01-11 20:35:00,
2013-01-11 14:40:00,67.6,67.3,29.93,ESE,115,0.0,3.0,99,0.00,,---,0.09,VWS V14.01,2013-01-11 20:40:00,
2013-01-11 14:45:00,67.8,67.5,29.92,ESE,115,0.0,3.0,99,0.00,,---,0.09,VWS V14.01,2013-01-11 20:45:00,
2013-01-11 14:46:00,67.8,67.5,29.92,ESE,115,0.0,0.0,99,0.00,,---,0.09,VWS V14.01,2013-01-11 20:46:00,
2013-01-11 14:51:00,67.9,67.6,29.92,ESE,105,1.0,3.0,99,0.00,,---,0.09,VWS V14.01,2013-01-11 20:51:00,
2013-01-11 14:56:00,67.9,67.6,29.92,East,96,0.0,4.0,99,0.00,,---,0.09,VWS V14.01,2013-01-11 20:56:00,
2013-01-11 15:00:00,67.9,67.6,29.92,SE,146,2.0,4.0,99,0.00,,---,0.09,VWS V14.01,2013-01-11 21:00:00,
2013-01-11 15:01:00,68.1,67.8,29.92,SE,146,0.0,2.0,99,0.00,,---,0.09,VWS V14.01,2013-01-11 21:01:00,
2013-01-11 15:06:00,68.1,67.8,29.92,South,180,0.0,2.0,99,0.00,,---,0.09,VWS V14.01,2013-01-11 21:06:00,
2013-01-11 15:11:00,68.3,68.0,29.92,SE,136,0.0,4.0,99,0.00,,---,0.09,VWS V14.01,2013-01-11 21:11:00,
2013-01-11 15:15:00,68.4,68.1,29.92,SE,136,0.0,4.0,99,0.00,,---,0.09,VWS V14.01,2013-01-11 21:15:00,
2013-01-11 15:16:00,68.4,68.1,29.92,SSE,165,0.0,0.0,99,0.00,,---,0.09,VWS V14.01,2013-01-11 21:16:00,
2013-01-11 15:21:00,68.6,68.3,29.92,SSE,153,0.0,1.0,99,0.00,,---,0.09,VWS V14.01,2013-01-11 21:21:00,
2013-01-11 15:26:00,68.6,68.3,29.92,East,99,0.0,1.0,99,0.00,,---,0.09,VWS V14.01,2013-01-11 21:26:00,
2013-01-11 15:30:00,68.8,68.5,29.92,East,99,0.0,1.0,99,0.00,,---,0.09,VWS V14.01,2013-01-11 21:30:00,
2013-01-11 15:31:00,68.8,68.5,29.92,East,99,0.0,0.0,99,0.00,,---,0.09,VWS V14.01,2013-01-11 21:31:00,
2013-01-11 15:36:00,68.6,68.3,29.92,East,99,0.0,0.0,99,0.00,,---,0.09,VWS V14.01,2013-01-11 21:36:00,
2013-01-11 15:42:00,68.6,68.3,29.92,East,99,0.0,0.0,99,0.00,,---,0.09,VWS V14.01,2013-01-11 21:42:00,
2013-01-11 15:45:00,68.6,68.3,29.92,East,99,0.0,0.0,99,0.00,,---,0.09,VWS V14.01,2013-01-11 21:45:00,
2013-01-11 15:47:00,68.6,68.3,29.92,SE,132,0.0,0.0,99,0.00,,---,0.09,VWS V14.01,2013-01-11 21:47:00,
2013-01-11 15:52:00,68.6,68.3,29.92,SSE,147,6.0,6.0,99,0.00,,---,0.09,VWS V14.01,2013-01-11 21:52:00,
2013-01-11 15:57:00,68.6,68.3,29.92,SE,134,3.0,6.0,99,0.00,,---,0.09,VWS V14.01,2013-01-11 21:57:00,
2013-01-11 16:00:00,68.6,68.3,29.92,SE,133,0.0,6.0,99,0.00,,---,0.09,VWS V14.01,2013-01-11 22:00:00,
2013-01-11 16:02:00,68.6,68.3,29.92,SSE,147,5.0,9.0,99,0.00,,---,0.09,VWS V14.01,2013-01-11 22:02:00,
2013-01-11 16:07:00,68.4,68.1,29.92,SSE,152,0.0,9.0,99,0.00,,---,0.09,VWS V14.01,2013-01-11 22:07:00,
2013-01-11 16:12:00,68.4,68.1,29.92,SE,135,0.0,9.0,99,0.00,,---,0.09,VWS V14.01,2013-01-11 22:12:00,
2013-01-11 16:15:00,68.4,68.1,29.92,SE,135,0.0,9.0,99,0.00,,---,0.09,VWS V14.01,2013-01-11 22:15:00,
2013-01-11 16:17:00,68.6,68.3,29.92,SE,135,0.0,0.0,99,0.00,,---,0.09,VWS V14.01,2013-01-11 22:17:00,
2013-01-11 16:22:00,68.4,68.1,29.92,SE,135,0.0,3.0,99,0.00,,---,0.09,VWS V14.01,2013-01-11 22:22:00,
2013-01-11 16:27:00,68.4,68.1,29.92,SE,129,0.0,5.0,99,0.00,,---,0.09,VWS V14.01,2013-01-11 22:27:00,
2013-01-11 16:30:00,68.4,68.1,29.92,SE,129,0.0,5.0,99,0.00,,---,0.09,VWS V14.01,2013-01-11 22:30:00,
2013-01-11 16:32:00,68.4,68.1,29.92,SE,129,0.0,0.0,99,0.00,,---,0.09,VWS V14.01,2013-01-11 22:32:00,
2013-01-11 16:38:00,68.4,68.1,29.92,SSE,150,0.0,5.0,99,0.00,,---,0.09,VWS V14.01,2013-01-11 22:38:00,
2013-01-11 16:43:00,68.4,68.1,29.92,SSE,150,0.0,5.0,99,0.00,,---,0.09,VWS V14.01,2013-01-11 22:43:00,
2013-01-11 16:45:00,68.4,68.1,29.92,SSE,163,2.0,5.0,99,0.00,,---,0.09,VWS V14.01,2013-01-11 22:45:00,
2013-01-11 16:48:00,68.4,68.1,29.92,SSE,163,0.0,4.0,99,0.00,,---,0.09,VWS V14.01,2013-01-11 22:48:00,
2013-01-11 16:53:00,68.4,68.1,29.92,SE,126,0.0,4.0,99,0.00,,---,0.09,VWS V14.01,2013-01-11 22:53:00,
2013-01-11 16:58:00,68.3,68.0,29.92,SSE,160,0.0,4.0,99,0.00,,---,0.09,VWS V14.01,2013-01-11 22:58:00,
2013-01-11 17:00:00,68.4,68.1,29.92,SSE,160,0.0,4.0,99,0.00,,---,0.09,VWS V14.01,2013-01-11 23:00:00,
2013-01-11 17:03:00,68.3,68.0,29.92,SSE,158,0.0,1.0,99,0.00,,---,0.09,VWS V14.01,2013-01-11 23:03:00,
2013-01-11 17:08:00,68.3,68.0,29.92,SE,140,1.0,5.0,99,0.00,,---,0.09,VWS V14.01,2013-01-11 23:08:00,
2013-01-11 17:13:00,68.3,68.0,29.92,SE,136,0.0,5.0,99,0.00,,---,0.09,VWS V14.01,2013-01-11 23:13:00,
2013-01-11 17:15:00,68.3,68.0,29.92,SE,125,0.0,5.0,99,0.00,,---,0.09,VWS V14.01,2013-01-11 23:15:00,
2013-01-11 17:18:00,68.3,68.0,29.92,SSE,163,0.0,1.0,99,0.00,,---,0.09,VWS V14.01,2013-01-11 23:18:00,
2013-01-11 17:24:00,68.3,68.0,29.92,SSE,159,0.0,3.0,99,0.00,,---,0.09,VWS V14.01,2013-01-11 23:24:00,
2013-01-11 17:29:00,68.3,68.0,29.93,SE,143,0.0,3.0,99,0.00,,---,0.09,VWS V14.01,2013-01-11 23:29:00,
2013-01-11 17:30:00,68.3,68.0,29.93,SE,143,0.0,3.0,99,0.00,,---,0.09,VWS V14.01,2013-01-11 23:30:00,
2013-01-11 17:34:00,68.3,68.0,29.93,SE,132,0.0,0.0,99,0.00,,---,0.09,VWS V14.01,2013-01-11 23:34:00,
2013-01-11 17:39:00,68.3,68.0,29.93,SE,132,1.0,3.0,99,0.00,,---,0.09,VWS V14.01,2013-01-11 23:39:00,
2013-01-11 17:44:00,68.4,68.1,29.93,SE,132,0.0,3.0,99,0.00,,---,0.09,VWS V14.01,2013-01-11 23:44:00,
2013-01-11 17:45:00,68.4,68.1,29.93,SE,132,0.0,3.0,99,0.00,,---,0.09,VWS V14.01,2013-01-11 23:45:00,
2013-01-11 17:49:00,68.4,68.1,29.93,SE,132,0.0,0.0,99,0.00,,---,0.09,VWS V14.01,2013-01-11 23:49:00,
2013-01-11 17:54:00,68.4,68.1,29.93,South,175,2.0,4.0,99,0.00,,---,0.09,VWS V14.01,2013-01-11 23:54:00,
2013-01-11 17:59:00,68.4,68.1,29.93,South,175,0.0,0.0,99,0.00,,---,0.09,VWS V14.01,2013-01-11 23:59:00,
2013-01-11 18:00:00,68.4,68.1,29.93,South,175,0.0,4.0,99,0.00,,---,0.09,VWS V14.01,2013-01-12 00:00:00,
2013-01-11 18:05:00,68.4,68.1,29.93,South,175,0.0,0.0,99,0.00,,---,0.09,VWS V14.01,2013-01-12 00:05:00,
2013-01-11 18:10:00,68.6,68.3,29.93,South,175,2.0,2.0,99,0.00,,---,0.09,VWS V14.01,2013-01-12 00:10:00,
2013-01-11 18:15:00,68.6,68.3,29.93,South,178,0.0,0.0,99,0.00,,---,0.09,VWS V14.01,2013-01-12 00:15:00,
2013-01-11 18:20:00,68.6,68.3,29.93,South,182,0.0,5.0,99,0.00,,---,0.09,VWS V14.01,2013-01-12 00:20:00,
2013-01-11 18:25:00,68.6,68.3,29.93,South,170,0.0,5.0,99,0.00,,---,0.09,VWS V14.01,2013-01-12 00:25:00,
2013-01-11 18:30:00,68.8,68.5,29.93,SSW,192,2.0,6.0,99,0.00,,---,0.09,VWS V14.01,2013-01-12 00:30:00,
2013-01-11 18:35:00,68.8,68.5,29.93,South,174,0.0,6.0,99,0.00,,---,0.09,VWS V14.01,2013-01-12 00:35:00,
2013-01-11 18:40:00,68.8,68.5,29.93,South,173,4.0,6.0,99,0.00,,---,0.09,VWS V14.01,2013-01-12 00:40:00,
2013-01-11 18:45:00,68.8,68.5,29.93,South,185,0.0,0.0,99,0.00,,---,0.09,VWS V14.01,2013-01-12 00:45:00,
2013-01-11 18:50:00,68.8,68.5,29.93,South,182,2.0,6.0,99,0.00,,---,0.09,VWS V14.01,2013-01-12 00:50:00,
2013-01-11 18:55:00,68.8,68.5,29.93,South,176,0.0,6.0,99,0.00,,---,0.09,VWS V14.01,2013-01-12 00:55:00,
2013-01-11 19:00:00,68.8,68.5,29.94,South,176,0.0,6.0,99,0.00,,---,0.09,VWS V14.01,2013-01-12 01:00:00,
2013-01-11 19:01:00,68.8,68.5,29.94,South,176,0.0,0.0,99,0.00,,---,0.09,VWS V14.01,2013-01-12 01:01:00,
2013-01-11 19:06:00,68.8,68.5,29.94,SSE,164,0.0,0.0,99,0.00,,---,0.09,VWS V14.01,2013-01-12 01:06:00,
2013-01-11 19:11:00,68.8,68.5,29.94,SSE,164,0.0,0.0,99,0.00,,---,0.09,VWS V14.01,2013-01-12 01:11:00,
2013-01-11 19:15:00,68.8,68.5,29.94,South,175,0.0,5.0,99,0.00,,---,0.09,VWS V14.01,2013-01-12 01:15:00,
2013-01-11 19:16:00,68.8,68.5,29.94,South,180,0.0,4.0,99,0.00,,---,0.09,VWS V14.01,2013-01-12 01:16:00,
2013-01-11 19:21:00,68.8,68.5,29.94,South,180,0.0,4.0,99,0.00,,---,0.09,VWS V14.01,2013-01-12 01:21:00,
2013-01-11 19:26:00,68.8,68.5,29.94,South,180,0.0,4.0,99,0.01,,---,0.10,VWS V14.01,2013-01-12 01:26:00,
2013-01-11 19:30:00,68.8,68.5,29.94,South,180,0.0,4.0,99,0.01,,---,0.10,VWS V14.01,2013-01-12 01:30:00,
2013-01-11 19:31:00,68.8,68.5,29.94,South,180,0.0,0.0,99,0.01,,---,0.10,VWS V14.01,2013-01-12 01:31:00,
2013-01-11 19:36:00,68.8,68.5,29.94,South,180,0.0,0.0,99,0.01,,---,0.10,VWS V14.01,2013-01-12 01:36:00,
2013-01-11 19:41:00,68.8,68.5,29.94,South,180,0.0,0.0,99,0.01,,---,0.10,VWS V14.01,2013-01-12 01:41:00,
2013-01-11 19:45:00,68.8,68.5,29.94,South,180,0.0,0.0,99,0.01,,---,0.10,VWS V14.01,2013-01-12 01:45:00,
2013-01-11 19:46:00,68.8,68.5,29.94,South,180,0.0,1.0,99,0.01,,---,0.10,VWS V14.01,2013-01-12 01:46:00,
2013-01-11 19:51:00,68.8,68.5,29.94,South,180,0.0,1.0,99,0.01,,---,0.10,VWS V14.01,2013-01-12 01:51:00,
2013-01-11 19:56:00,68.8,68.5,29.94,South,180,0.0,1.0,99,0.01,,---,0.10,VWS V14.01,2013-01-12 01:56:00,
2013-01-11 20:00:00,68.8,68.5,29.94,South,180,0.0,1.0,99,0.01,,---,0.10,VWS V14.01,2013-01-12 02:00:00,
2013-01-11 20:01:00,68.8,68.5,29.94,SE,139,0.0,0.0,99,0.01,,---,0.10,VWS V14.01,2013-01-12 02:01:00,
2013-01-11 20:06:00,68.8,68.5,29.94,SE,139,0.0,0.0,99,0.01,,---,0.10,VWS V14.01,2013-01-12 02:06:00,
2013-01-11 20:11:00,68.8,68.5,29.94,SE,139,0.0,0.0,99,0.01,,---,0.10,VWS V14.01,2013-01-12 02:11:00,
2013-01-11 20:15:00,68.8,68.5,29.94,SE,139,0.0,0.0,99,0.01,,---,0.10,VWS V14.01,2013-01-12 02:15:00,
2013-01-11 20:16:00,68.8,68.5,29.94,SE,139,0.0,0.0,99,0.01,,---,0.10,VWS V14.01,2013-01-12 02:16:00,
2013-01-11 20:21:00,68.6,68.3,29.94,SE,139,0.0,0.0,99,0.01,,---,0.10,VWS V14.01,2013-01-12 02:21:00,
2013-01-11 20:26:00,68.6,68.3,29.94,SE,139,0.0,0.0,99,0.02,,---,0.11,VWS V14.01,2013-01-12 02:26:00,
2013-01-11 20:30:00,68.6,68.3,29.94,SE,139,0.0,1.0,99,0.02,,---,0.11,VWS V14.01,2013-01-12 02:30:00,
2013-01-11 20:32:00,68.6,68.3,29.94,SE,139,0.0,1.0,99,0.01,,---,0.11,VWS V14.01,2013-01-12 02:32:00,
2013-01-11 20:36:00,68.6,68.3,29.94,SE,139,0.0,1.0,99,0.01,,---,0.11,VWS V14.01,2013-01-12 02:36:00,
2013-01-11 20:42:00,68.6,68.3,29.94,SE,140,0.0,3.0,99,0.01,,---,0.11,VWS V14.01,2013-01-12 02:42:00,
2013-01-11 20:45:00,68.6,68.3,29.94,SSE,164,2.0,3.0,99,0.01,,---,0.11,VWS V14.01,2013-01-12 02:45:00,
2013-01-11 20:47:00,68.6,68.3,29.94,SSE,168,1.0,3.0,99,0.01,,---,0.11,VWS V14.01,2013-01-12 02:47:00,
2013-01-11 20:52:00,68.8,68.5,29.94,SSE,168,2.0,7.0,99,0.01,,---,0.11,VWS V14.01,2013-01-12 02:52:00,
2013-01-11 20:57:00,68.8,68.5,29.94,SSE,164,0.0,7.0,99,0.01,,---,0.11,VWS V14.01,2013-01-12 02:57:00,
2013-01-11 21:00:00,68.8,68.5,29.94,South,176,3.0,7.0,99,0.01,,---,0.11,VWS V14.01,2013-01-12 03:00:00,
2013-01-11 21:02:00,68.8,68.5,29.94,South,176,1.0,5.0,99,0.01,,---,0.11,VWS V14.01,2013-01-12 03:02:00,
2013-01-11 21:07:00,68.9,68.6,29.94,SSW,197,0.0,5.0,99,0.01,,---,0.11,VWS V14.01,2013-01-12 03:07:00,
2013-01-11 21:12:00,68.9,68.6,29.94,SE,135,0.0,6.0,99,0.01,,---,0.11,VWS V14.01,2013-01-12 03:12:00,
2013-01-11 21:15:00,68.9,68.6,29.94,South,190,5.0,6.0,99,0.01,,---,0.11,VWS V14.01,2013-01-12 03:15:00,
2013-01-11 21:17:00,68.9,68.6,29.94,South,174,0.0,5.0,99,0.01,,---,0.11,VWS V14.01,2013-01-12 03:17:00,
2013-01-11 21:22:00,68.9,68.6,29.94,South,177,0.0,5.0,99,0.01,,---,0.11,VWS V14.01,2013-01-12 03:22:00,
2013-01-11 21:27:00,68.9,68.6,29.94,South,188,0.0,5.0,99,0.01,,---,0.11,VWS V14.01,2013-01-12 03:27:00,
2013-01-11 21:30:00,69.1,68.8,29.94,South,188,0.0,5.0,99,0.01,,---,0.11,VWS V14.01,2013-01-12 03:30:00,
2013-01-11 21:32:00,69.1,68.8,29.94,SSE,167,0.0,6.0,99,0.00,,---,0.11,VWS V14.01,2013-01-12 03:32:00,
2013-01-11 21:37:00,69.1,68.8,29.94,South,173,2.0,6.0,99,0.00,,---,0.11,VWS V14.01,2013-01-12 03:37:00,
2013-01-11 21:42:00,69.1,68.8,29.94,South,175,0.0,6.0,99,0.00,,---,0.11,VWS V14.01,2013-01-12 03:42:00,
2013-01-11 21:45:00,69.1,68.8,29.94,South,173,0.0,6.0,99,0.00,,---,0.11,VWS V14.01,2013-01-12 03:45:00,
2013-01-11 21:48:00,69.1,68.8,29.94,SSE,164,0.0,5.0,99,0.00,,---,0.11,VWS V14.01,2013-01-12 03:48:00,
2013-01-11 21:53:00,69.1,68.8,29.94,South,186,3.0,6.0,99,0.00,,---,0.11,VWS V14.01,2013-01-12 03:53:00,
2013-01-11 21:58:00,69.3,69.0,29.94,South,185,4.0,6.0,99,0.00,,---,0.11,VWS V14.01,2013-01-12 03:58:00,
2013-01-11 22:00:00,69.3,69.0,29.94,SSW,202,0.0,6.0,99,0.00,,---,0.11,VWS V14.01,2013-01-12 04:00:00,
2013-01-11 22:03:00,69.3,69.0,29.94,South,171,0.0,5.0,99,0.00,,---,0.11,VWS V14.01,2013-01-12 04:03:00,
2013-01-11 22:08:00,69.3,69.0,29.94,South,175,0.0,7.0,99,0.00,,---,0.11,VWS V14.01,2013-01-12 04:08:00,
2013-01-11 22:13:00,69.3,69.0,29.94,South,176,0.0,7.0,99,0.00,,---,0.11,VWS V14.01,2013-01-12 04:13:00,
2013-01-11 22:15:00,69.3,69.0,29.94,South,178,4.0,7.0,99,0.00,,---,0.11,VWS V14.01,2013-01-12 04:15:00,
2013-01-11 22:18:00,69.4,69.1,29.94,SSE,167,0.0,4.0,99,0.00,,---,0.11,VWS V14.01,2013-01-12 04:18:00,
2013-01-11 22:23:00,69.4,69.1,29.94,South,179,0.0,6.0,99,0.00,,---,0.11,VWS V14.01,2013-01-12 04:23:00,
2013-01-11 22:28:00,69.4,69.1,29.94,South,185,0.0,6.0,99,0.00,,---,0.11,VWS V14.01,2013-01-12 04:28:00,
2013-01-11 22:30:00,69.4,69.1,29.94,South,185,0.0,6.0,99,0.00,,---,0.11,VWS V14.01,2013-01-12 04:30:00,
2013-01-11 22:33:00,69.6,69.3,29.94,South,181,0.0,7.0,99,0.00,,---,0.11,VWS V14.01,2013-01-12 04:33:00,
2013-01-11 22:38:00,69.6,69.3,29.94,South,184,0.0,7.0,99,0.00,,---,0.11,VWS V14.01,2013-01-12 04:38:00,
2013-01-11 22:43:00,69.6,69.3,29.93,South,171,0.0,8.0,99,0.00,,---,0.11,VWS V14.01,2013-01-12 04:43:00,
2013-01-11 22:45:00,69.6,69.3,29.93,South,187,0.0,8.0,99,0.00,,---,0.11,VWS V14.01,2013-01-12 04:45:00,
2013-01-11 22:49:00,69.6,69.3,29.93,South,186,0.0,0.0,99,0.00,,---,0.11,VWS V14.01,2013-01-12 04:49:00,
2013-01-11 22:54:00,69.8,69.5,29.93,South,177,1.0,4.0,99,0.00,,---,0.11,VWS V14.01,2013-01-12 04:54:00,
2013-01-11 22:59:00,69.8,69.5,29.93,South,170,0.0,5.0,99,0.00,,---,0.11,VWS V14.01,2013-01-12 04:59:00,
2013-01-11 23:00:00,69.8,69.5,29.93,South,170,0.0,0.0,99,0.00,,---,0.11,VWS V14.01,2013-01-12 05:00:00,
2013-01-11 23:01:00,69.8,69.5,29.93,SSE,163,0.0,0.0,99,0.00,,---,0.11,VWS V14.01,2013-01-12 05:01:00,
2013-01-11 23:04:00,69.8,69.5,29.93,South,184,0.0,3.0,99,0.00,,---,0.11,VWS V14.01,2013-01-12 05:04:00,
2013-01-11 23:09:00,69.8,69.5,29.93,South,173,2.0,3.0,99,0.00,,---,0.11,VWS V14.01,2013-01-12 05:09:00,
2013-01-11 23:14:00,69.8,69.5,29.93,South,173,2.0,4.0,99,0.00,,---,0.11,VWS V14.01,2013-01-12 05:14:00,
2013-01-11 23:15:00,69.8,69.5,29.93,South,173,0.0,4.0,99,0.00,,---,0.11,VWS V14.01,2013-01-12 05:15:00,
2013-01-11 23:19:00,69.9,69.6,29.93,South,180,2.0,5.0,99,0.00,,---,0.11,VWS V14.01,2013-01-12 05:19:00,
2013-01-11 23:24:00,69.9,69.6,29.93,South,177,2.0,5.0,99,0.00,,---,0.11,VWS V14.01,2013-01-12 05:24:00,
2013-01-11 23:29:00,69.9,69.6,29.93,South,176,0.0,5.0,99,0.00,,---,0.11,VWS V14.01,2013-01-12 05:29:00,
2013-01-11 23:30:00,69.9,69.6,29.93,South,176,0.0,5.0,99,0.00,,---,0.11,VWS V14.01,2013-01-12 05:30:00,
2013-01-11 23:34:00,69.9,69.6,29.93,South,175,0.0,4.0,99,0.00,,---,0.11,VWS V14.01,2013-01-12 05:34:00,
2013-01-11 23:39:00,69.9,69.6,29.93,SSE,164,2.0,5.0,99,0.00,,---,0.11,VWS V14.01,2013-01-12 05:39:00,
2013-01-11 23:44:00,69.9,69.6,29.93,South,178,4.0,7.0,99,0.00,,---,0.11,VWS V14.01,2013-01-12 05:44:00,
2013-01-11 23:45:00,69.9,69.6,29.93,South,178,4.0,7.0,99,0.00,,---,0.11,VWS V14.01,2013-01-12 05:45:00,
2013-01-11 23:49:00,70.1,69.8,29.93,SSW,194,0.0,6.0,99,0.00,,---,0.11,VWS V14.01,2013-01-12 05:49:00,
2013-01-11 23:54:00,70.1,69.8,29.93,South,171,0.0,6.0,99,0.00,,---,0.11,VWS V14.01,2013-01-12 05:54:00,